Rechercher aéroport 
image banner adimage banner adimage banner ad
image banner ad

4CA3 - Camp Parks

Situé à Pleasanton, United States

ICAO - 4CA3, IATA -

Données fournies par Airmate  

Information générale

Coordonnées: N37°42'30" W121°53'34"
Élévation : 361 feet MSL.
Variation magnétique : 16° East
Voir autres Aéroports à California

Données opérationnelles

Special qualification required
Heure actuelle UTC:
Heure actuelle locale:
Météo à : KLVK - Livermore Muni ( 7 km )
METAR: KLVK 240853Z AUTO VRB03KT 10SM -RA SCT060 OVC080 15/13 A2978 RMK AO2 SLP080 P0000 60000 T01500133 58021
TAF: KLVK 240540Z 2406/2506 04006KT P6SM -RA OVC030 FM241100 19011G18KT 5SM -RA BR OVC030 WS020/23040KT FM241500 20022G34KT 4SM -RA BR OVC025 WS020/23055KT FM241800 21022G34KT 4SM RA BR OVC025 WS020/23055KT FM242100 21025G40KT 3SM -RA BR OVC007 WS011/23055KT FM250100 18015G25KT 2SM +RA BR BKN010 OVC025
Voir NOTAMs / SUP AIP / TFR affectant cet aéroport [VIEW]
Fréquences de communication: [VIEW]

Pistes:

Coordonnées de l'aéroport

Adresse: Pleasanton United States

Vue satellite de 4CA3